Regional Weather Roundup
Issued by NWS

Home | Current Version | Previous Version | Graphics & Text | Print | Product List | Glossary On
Versions: 1 2 3 4 5 6 7 8 9 10 11 12 13 14 15 16 17 18 19 20 21 22 23 24 25 26 27 28
000
ASUS45 KBOI 060910
RWRID

IDAHO REGIONAL WEATHER ROUNDUP
NATIONAL WEATHER SERVICE BOISE ID
200 AM MST TUE DEC 06 2016

NOTE: "FAIR" INDICATES FEW OR NO CLOUDS BELOW 12000 FEET
WITH NO SIGNIFICANT WEATHER AND/OR OBSTRUCTIONS TO VISIBILITY

IDZ012-014-061000-
SOUTHWEST IDAHO


CITY           SKY/WX    TMP DP  RH WIND       PRES   REMARKS
BOISE          CLOUDY    25  10  53 SE16      29.93F WCI  12
CALDWELL       CLOUDY    25  16  68 SE13      29.96F WCI  14
MOUNTAIN HOME  PTCLDY    20  18  91 SE13      29.96F WCI   8
$$

IDZ016-017-061000-
SOUTHCENTRAL IDAHO


CITY           SKY/WX    TMP DP  RH WIND       PRES   REMARKS
BURLEY         CLEAR     11   7  84 CALM      29.93F
JEROME         CLEAR     12   8  84 NE16      29.93F WCI  -5
TWIN FALLS     CLEAR     11   3  70 CALM      29.93F
$$

IDZ019>023-061000-
SOUTHEAST IDAHO


CITY           SKY/WX    TMP DP  RH WIND       PRES   REMARKS
IDAHO FALLS    CLEAR      9   2  73 N3        29.96F
POCATELLO      CLEAR      6   0  76 SW3       29.96F
REXBURG        CLEAR      9   2  73 CALM      29.96S
$$

IDZ006-010-011-018-031-032-061000-
CENTRAL IDAHO MOUNTAINS


CITY           SKY/WX    TMP DP  RH WIND       PRES   REMARKS
MCCALL         CLOUDY    16  11  80 E3        29.80F
HAILEY         CLEAR      5  -4  66 NW13G18   29.93F WCI -12
STANLEY          N/A    -12 -18  74 E3        29.85F
SALMON         CLOUDY     3   0  85 CALM      29.98F
CHALLIS        PTCLDY     5   0  79 NW3       29.92F
$$

IDZ002-004-006-007-026-061000-
NORTHERN IDAHO


CITY           SKY/WX    TMP DP  RH WIND       PRES   REMARKS
LEWISTON       CLOUDY    33  22  63 E8        29.93F WCI  26
LOWELL           N/A     29  25  85 CALM      30.02F
COEUR D`ALENE  MOCLDY    24  19  81 N12       29.96F WCI  13
MULLAN PASS    CLOUDY    10   8  92 SE7       29.76F WCI  -1
$$




USA.gov is the U.S. government's official web portal to all federal, state and local government web resources and services.